SCP
3 4 6 5 4 4 4 4 3 3 2 2 2 2 2 2 2 2 2 3 3 3 3 2 2 2 2 1 1 1 1 1 1 1 1 1 1 1 1 1 0 0 0
5 5 6 6 5 5 5 5 4 3 3 2 2 2 2 2 2 2 3 4 4 3 3 3 3 2 2 2 1 1 1 1 1 1 1 1 1 1 1 1 0 0 0
7 7 7 6 6 6 6 6 5 4 4 3 3 2 2 2 2 3 4 4 4 4 3 3 3 3 2 2 2 1 1 1 1 1 1 1 1 1 1 1 1 1 0
9 9 8 7 8 7 7 7 7 7 5 4 4 3 2 2 3 3 4 5 5 4 4 4 3 3 3 2 2 2 2 1 1 1 1 1 1 1 1 1 1 1 0
13 11 10 9 9 9 8 8 9 9 7 6 5 3 3 3 3 3 4 4 4 4 4 4 4 4 3 3 3 2 2 2 2 1 1 1 1 1 1 1 1 1 0
15 14 12 10 10 10 9 9 10 10 9 8 6 5 4 3 3 3 3 3 4 4 4 4 4 4 4 3 3 3 2 2 2 2 1 1 1 1 1 1 1 1 0
16 15 13 12 11 11 10 9 10 10 10 9 8 6 4 3 3 3 3 3 3 3 3 3 4 4 4 3 3 3 3 2 2 2 2 1 1 1 1 1 1 1 0
16 15 14 13 12 12 10 9 9 9 9 8 8 6 4 3 2 2 3 4 3 3 3 3 3 3 4 3 3 3 2 2 2 2 2 2 1 1 1 1 1 1 0
14 14 15 14 13 12 11 10 9 8 7 7 7 6 4 3 2 2 2 3 3 3 3 2 2 3 3 3 2 2 2 2 2 2 2 2 2 1 1 1 1 1 1
12 12 13 13 11 11 10 9 8 7 7 7 6 5 4 4 2 2 2 2 2 2 2 2 2 2 2 2 2 2 1 2 2 2 2 2 2 1 1 1 1 1 1
10 10 10 10 10 9 8 7 7 6 6 6 5 4 4 4 2 1 1 1 1 2 2 1 1 1 2 2 2 1 1 1 1 1 2 2 2 1 1 2 1 1 1
9 9 9 9 9 8 7 7 6 5 5 4 3 2 3 2 2 1 1 1 1 1 1 1 1 1 1 1 1 1 0 0 0 1 1 1 1 1 2 2 2 1 1
9 8 8 8 7 7 7 6 5 4 3 3 2 1 1 1 1 1 1 1 1 1 1 1 1 1 1 1 0 0 0 0 0 0 0 0 1 1 1 1 1 1 1
7 7 7 6 6 6 6 5 5 4 3 2 2 1 1 1 1 1 1 1 1 1 1 1 1 1 1 0 0 0 0 0 0 0 0 0 0 0 1 1 1 1 1
5 5 5 5 5 5 5 4 4 3 2 2 1 1 1 1 1 1 1 1 1 1 1 1 1 1 0 0 0 0 0 0 0 0 0 0 0 0 0 0 0 0 1
4 4 4 4 4 4 3 3 3 2 2 2 1 1 1 1 1 1 1 1 1 1 1 0 1 1 0 0 0 0 0 0 0 0 0 0 0 0 0 0 0 0 0
3 3 3 3 3 3 2 2 2 2 1 1 1 1 1 1 1 1 1 1 1 1 1 0 1 1 1 0 0 0 0 0 0 0 0 0 0 0 0 0 0 0 0
2 2 2 2 2 2 2 2 1 1 1 1 1 1 1 1 1 1 1 1 0 0 0 0 0 1 1 1 1 0 0 0 0 0 0 0 0 0 0 0 0 0 0
1 1 1 1 1 1 1 1 1 1 1 1 0 0 0 0 0 0 0 0 0 0 0 0 0 0 0 1 1 0 0 0 0 0 0 0 0 0 0 0 0 0 0
1 1 1 1 1 1 1 1 1 0 0 0 0 0 0 0 0 0 0 0 0 0 0 0 0 0 0 0 0 0 0 0 0 0 0 0 0 0 0 0 0 0 0
0 0 0 0 0 0 0 0 0 0 0 0 0 0 0 0 0 0 0 0 0 0 0 0 0 0 0 0 0 0 0 0 0 0 0 0 0 0 0 0 0 0 0
0 0 0 0 0 0 0 0 0 0 0 0 0 0 0 0 0 0 0 0 0 0 0 0 0 0 0 0 0 0 0 0 0 0 0 0 0 0 0 0 0 0 0
0 0 0 0 0 0 0 0 0 0 0 0 0 0 0 0 0 0 0 0 0 0 0 0 0 0 0 0 0 0 0 0 0 0 0 0 0 0 0 0 0 0 0
0 0 0 0 0 0 0 0 0 0 0 0 0 0 0 0 0 0 0 0 0 0 0 0 0 0 0 0 0 0 0 0 0 0 0 0 0 0 0 0 0 0 0
0 0 0 0 0 0 0 0 0 0 0 0 0 0 0 0 0 0 0 0 0 0 0 0 0 0 0 0 0 0 0 0 0 0 0 0 0 0 0 0 0 0 0
0 0 0 0 0 0 0 0 0 0 0 0 0 0 0 0 0 0 0 0 0 0 0 0 0 0 0 0 0 0 0 0 0 0 0 0 0 0 0 0 0 0 0
Wind_Speed
7 6 3 2 3 3 4 6 5 6 6 6 6 7 7 7 7 6 4 15 17 17 17 17 18 18 18 17 17 17 17 16 15 15 15 16 16 17 17 17 16 15 14
5 4 3 3 4 4 3 3 4 3 4 4 6 6 6 6 7 8 6 11 18 18 19 19 19 19 19 18 18 17 17 16 15 15 15 15 16 16 16 16 16 15 14
5 4 4 4 4 4 3 2 3 3 3 4 5 6 7 7 8 8 7 5 9 17 20 20 20 20 20 20 19 18 17 17 16 15 15 15 15 15 15 15 15 15 15
6 5 4 4 3 2 2 2 3 3 3 3 4 6 7 7 9 9 8 7 7 8 15 22 20 20 20 21 21 19 18 17 17 16 16 16 15 15 15 15 14 14 14
8 6 4 3 3 2 2 4 2 2 2 3 4 7 8 8 9 10 9 9 8 7 6 14 22 22 22 23 22 21 19 18 17 17 17 17 16 15 15 14 14 14 14
7 6 5 5 4 3 3 3 3 3 2 3 6 8 8 7 7 8 9 8 6 7 8 9 11 16 22 21 21 21 21 19 18 18 18 18 17 16 16 15 15 14 14
5 5 4 4 4 4 4 4 3 4 3 3 3 6 8 9 11 10 8 7 6 6 6 6 6 7 10 20 21 21 21 21 19 19 18 18 18 17 16 16 15 15 14
5 6 5 5 5 4 5 5 5 3 3 3 2 3 6 7 8 6 3 4 5 4 4 5 4 6 6 7 12 20 21 21 21 20 19 18 18 17 17 17 16 15 15
4 4 5 5 5 5 5 5 5 6 4 3 4 3 4 4 5 5 4 2 2 2 2 3 4 4 4 4 7 15 20 20 21 21 19 18 18 17 17 17 17 16 16
5 6 6 6 5 5 5 6 6 4 4 4 3 4 6 5 3 4 4 4 4 3 3 4 4 4 4 3 3 7 16 18 18 19 18 17 17 17 17 17 17 17 16
7 7 7 6 6 5 6 6 4 4 4 3 3 3 5 5 5 4 5 4 4 3 3 3 3 3 3 3 1 2 6 10 11 12 13 13 14 15 16 16 17 16 16
6 8 7 6 6 6 6 5 4 4 3 3 3 4 4 3 2 3 4 4 4 3 3 1 1 2 2 4 6 8 2 3 5 6 7 8 9 11 12 13 14 15 15
5 7 8 7 6 6 5 5 4 4 4 4 4 4 4 4 3 2 3 3 4 3 1 1 1 2 3 3 4 5 1 2 3 4 5 6 6 7 7 8 10 12 13
5 5 7 6 6 6 6 5 4 4 4 4 5 4 3 3 2 2 1 2 3 2 1 1 1 2 2 2 3 4 1 1 2 2 3 4 4 4 5 6 7 9 11
4 4 5 6 6 5 5 4 3 3 2 2 3 3 2 2 1 2 2 2 2 3 2 1 1 2 1 1 1 2 1 2 3 3 2 3 3 4 5 6 8 9 11
3 2 3 3 3 3 3 3 3 3 2 2 2 1 0 1 1 2 2 2 2 2 2 2 2 3 3 3 1 2 2 4 4 4 4 3 3 4 5 6 8 10 11
4 3 2 1 0 1 2 2 2 1 2 1 1 2 3 3 3 3 2 2 2 1 2 2 2 3 3 4 3 3 2 3 3 6 5 4 3 4 5 6 8 10 12
5 5 4 3 2 1 1 1 1 3 4 4 4 4 4 4 4 4 3 3 2 2 2 3 3 3 3 4 4 4 2 2 1 4 5 3 3 3 4 6 8 10 12
6 5 5 5 4 3 3 4 4 5 6 6 6 6 6 6 6 4 4 4 4 4 3 3 2 2 2 4 5 5 4 3 2 1 3 3 3 3 4 6 7 9 10
5 5 5 4 4 4 4 6 6 6 7 7 7 7 7 7 6 5 6 6 5 4 4 3 4 4 4 6 5 5 4 4 4 4 2 1 2 3 4 5 6 7 9
3 3 4 3 3 3 4 5 6 7 6 6 6 7 7 8 9 7 7 6 7 6 5 5 5 5 5 6 6 5 5 4 2 3 2 2 2 2 2 3 4 7 8
1 1 1 2 4 6 8 9 7 6 5 5 5 5 7 7 6 7 9 10 9 8 7 6 6 5 6 6 6 5 4 4 3 3 3 3 3 3 3 3 4 6 7
1 1 2 5 6 6 10 10 9 6 6 6 6 6 7 9 8 5 3 4 7 9 7 5 5 5 5 5 6 7 5 3 2 3 2 2 2 2 3 4 5 5 6
2 2 4 5 5 6 9 10 9 6 6 6 7 7 7 8 9 8 5 5 5 5 5 4 3 3 3 4 6 6 6 3 1 3 3 2 2 2 2 2 5 5 5
3 3 4 6 5 4 7 9 8 3 4 6 8 8 7 7 11 11 6 5 5 3 1 1 3 4 5 6 5 6 8 7 5 3 5 3 3 2 1 1 2 4 5
4 4 5 5 6 5 4 7 8 2 3 5 6 7 10 8 9 10 6 5 5 5 7 6 3 3 2 3 5 4 5 6 6 4 6 5 4 4 3 1 1 1 2
Wind_Direction
213 229 222 206 225 234 200 209 225 219 225 238 248 254 246 241 249 251 207 195 199 204 209 213 219 225 230 232 232 231 229 230 227 219 216 218 219 220 220 221 223 223 221
212 215 207 200 222 243 259 237 250 241 230 242 257 263 258 255 249 242 228 205 209 212 214 217 221 225 228 231 231 229 227 226 222 216 214 215 217 219 219 220 221 221 219
214 208 220 217 218 222 236 255 273 290 279 272 271 275 270 255 253 249 241 228 216 218 221 221 223 225 227 229 230 229 226 222 218 214 213 213 215 217 218 218 219 218 216
215 214 214 222 214 206 207 229 236 249 270 284 286 282 277 271 259 248 240 234 231 231 219 221 223 225 227 229 230 229 226 222 217 213 211 211 213 214 215 216 217 216 215
205 207 219 221 220 219 219 246 236 215 254 274 277 270 259 256 257 256 248 241 234 228 221 212 218 221 223 226 228 228 226 222 217 213 212 211 212 212 212 213 213 213 213
196 198 209 213 220 224 219 223 236 235 238 254 277 281 280 271 263 259 256 254 247 239 236 226 211 220 221 223 223 224 224 222 218 215 213 212 212 212 211 211 211 211 212
204 192 221 212 217 227 228 227 232 236 238 242 263 278 272 265 259 245 234 235 244 255 253 241 211 207 214 222 222 221 222 222 219 216 215 213 212 211 211 211 211 211 212
207 212 215 228 230 235 232 229 226 229 229 226 234 274 281 279 271 263 219 212 231 242 263 274 253 223 210 201 217 221 223 223 221 218 216 214 213 212 211 212 212 212 212
220 230 232 237 236 234 233 225 221 226 228 236 232 229 263 274 328 316 301 267 251 253 274 291 290 279 251 208 197 214 223 224 223 221 218 215 214 213 213 214 214 215 215
237 233 234 231 232 233 234 232 221 217 219 236 252 255 252 269 283 303 317 339 348 335 321 307 304 302 288 268 235 202 216 225 226 226 224 219 217 216 216 217 218 219 219
227 230 229 227 228 231 231 232 228 220 217 233 254 280 279 265 237 249 284 305 319 315 304 290 298 319 338 328 312 13 214 225 226 228 230 228 224 221 219 219 222 223 225
227 225 225 221 223 224 224 225 227 225 221 239 253 261 273 272 268 243 264 292 295 290 296 320 1 0 3 35 52 34 353 247 237 234 237 240 238 232 223 221 225 229 233
237 221 216 214 218 216 217 216 218 224 224 235 246 254 262 262 265 251 253 280 290 287 305 34 46 39 36 46 68 19 329 230 239 238 241 244 246 241 233 234 239 243 245
255 240 222 215 217 215 216 208 213 223 228 234 251 257 265 273 270 260 271 308 312 315 315 91 95 79 39 32 45 342 340 174 210 222 229 236 244 251 256 258 261 263 262
264 244 225 215 214 216 214 203 211 228 244 243 254 255 261 282 287 312 326 335 329 330 338 42 33 78 39 20 38 320 336 176 201 217 228 241 254 265 273 275 272 268 264
307 280 237 223 205 200 198 203 223 227 210 210 222 224 321 10 6 339 338 338 345 335 321 345 4 19 22 345 6 311 307 184 211 219 229 245 265 275 282 283 283 279 272
25 23 1 347 216 191 201 210 240 201 155 132 102 92 74 59 34 6 5 4 357 349 320 331 9 15 15 346 334 314 283 223 208 208 218 235 256 273 286 292 292 288 282
30 29 20 15 6 348 30 51 49 105 109 101 84 73 63 61 45 29 2 4 352 344 342 353 13 13 14 352 342 327 326 304 231 189 206 226 250 276 293 303 301 298 292
25 21 18 10 11 26 57 75 85 89 84 75 68 64 58 51 37 15 19 14 9 17 19 35 32 22 12 3 359 353 6 354 345 141 183 220 252 275 296 307 310 311 308
19 12 19 23 34 47 71 84 86 82 80 76 70 64 57 51 32 9 35 20 16 16 35 44 45 33 21 9 13 360 5 11 25 27 21 326 276 282 298 308 321 328 328
24 4 13 29 64 72 73 93 102 95 89 90 89 86 77 74 60 49 51 30 25 28 33 38 37 33 19 11 6 350 357 351 53 30 354 9 353 336 330 340 348 353 352
11 360 5 64 75 72 60 66 87 93 89 84 88 104 106 79 76 72 72 60 51 48 38 37 33 24 17 4 348 342 346 350 359 8 356 10 8 6 3 12 20 18 14
174 198 116 91 84 64 59 56 52 88 78 69 61 52 66 56 40 32 66 84 65 59 56 56 45 23 14 353 342 339 343 353 4 344 337 355 360 8 9 19 26 39 39
165 161 117 105 99 73 53 48 37 85 81 74 67 66 70 49 26 13 33 58 62 51 44 54 40 8 9 344 344 345 344 356 44 23 354 353 350 347 356 17 28 46 62
175 160 128 121 108 85 51 39 23 80 90 79 68 53 63 56 25 20 32 40 42 25 7 309 281 293 309 326 345 359 2 4 0 22 12 355 341 322 322 357 26 50 74
179 167 146 140 135 121 71 44 21 13 114 115 107 86 66 59 39 30 27 30 22 352 338 328 301 289 316 15 27 29 14 2 357 357 6 352 349 344 332 325 345 13 80